Huron, SD

6:52 AM CDT on August 27, 2016 (GMT -0500)
Huron Regional

Weather History for KHON - January, 2013

Change the Weather History Date:

Wednesday, January 30, 2013

  Actual Average Record
Temperature  
Mean Temperature 9 °F 18 °F  
Max Temperature 21 °F 28 °F 59 °F (1989)
Min Temperature -4 °F 7 °F -29 °F (1994)
Degree Days  
Heating Degree Days 56 47  
Month to date heating degree days 1421 1454  
Since 1 July heating degree days 4495 4574  
Cooling Degree Days 0 0  
Month to date cooling degree days 0 0  
Year to date cooling degree days 0 0  
Moisture  
Dew Point 3 °F    
Average Humidity 76    
Maximum Humidity 93    
Minimum Humidity 55    
Precipitation  
Precipitation T in 0.01 in 0.74 in (2001)
Month to date precipitation 0.29 0.48  
Year to date precipitation 0.29 0.48  
Snow  
Snow T in 0.30 in 9.30 in (2001)
Month to date snowfall 5.3 7.1  
Since 1 July snowfall 19.4 23.4  
Snow Depth 4.00 in    
Sea Level Pressure  
Sea Level Pressure 29.97 in    
Wind  
Wind Speed 18 mph (NNW)    
Max Wind Speed 29 mph    
Max Gust Speed 37 mph    
Visibility 7 miles    
Events Snow    
T = Trace of Precipitation, MM = Missing Value Source: NWS Daily Summary

Daily Weather History Graph

Daily Weather History Graph

Search for Another Location

Airport or City:

Trip Planner

Search our weather history database for the weather conditions in past years. The results will help you decide how hot, cold, wet, or windy it might be!

Date:

Astronomy

Jan. 30, 2013 Rise Set
Actual Time 7:53 AM CST 5:40 PM CST
Civil Twilight 7:22 AM CST 6:11 PM CST
Nautical Twilight 6:47 AM CST 6:45 PM CST
Astronomical Twilight 6:13 AM CST 7:20 PM CST
Moon 9:52 PM CST (1/30) 9:11 AM CST (1/30)
Length of Visible Light 10h 49m
Length of Day
9h 46m
Waning Gibbous, 87% of the Moon is Illuminated
Jan 30
Waning Gibbous
Feb 3
Last Quarter
Feb 10
New
Feb 17
First Quarter
Feb 25
Full

Hourly Weather History & Observations

Time (CST) Temp. Windchill Dew Point Humidity Pressure Visibility Wind Dir Wind Speed Gust Speed Precip Events Conditions
12:37 AM 19.4 °F 4.1 °F 15.8 °F 86% 29.90 in 10.0 mi NNW 18.4 mph 24.2 mph N/A   Overcast
12:55 AM 19.9 °F 4.8 °F 16.0 °F 85% 29.95 in 10.0 mi NNW 18.4 mph - N/A   Overcast
1:55 AM 19.9 °F 6.2 °F 16.0 °F 85% 29.94 in 8.0 mi NNW 15.0 mph - 0.00 in Snow Light Snow
2:14 AM 19.4 °F 5.5 °F 17.6 °F 93% 29.89 in 5.0 mi NNW 15.0 mph - 0.00 in Snow Light Snow
2:53 AM 19.4 °F 4.1 °F 15.8 °F 86% 29.87 in 5.0 mi NNW 18.4 mph - 0.00 in Snow Light Snow
2:55 AM 19.9 °F 4.3 °F 16.0 °F 85% 29.94 in 5.0 mi NNW 19.6 mph - 0.00 in Snow Light Snow
3:03 AM 19.4 °F 3.2 °F 15.8 °F 86% 29.88 in 4.0 mi NNW 20.7 mph 28.8 mph 0.00 in Snow Light Snow
3:37 AM 17.6 °F -0.3 °F 14.0 °F 86% 29.89 in 3.0 mi North 24.2 mph 36.8 mph 0.00 in Snow Light Snow
3:55 AM 18.0 °F 0.9 °F 12.9 °F 81% 29.96 in 7.0 mi NNW 21.9 mph 28.8 mph 0.00 in Snow Light Snow
4:51 AM 15.8 °F -1.9 °F 10.4 °F 79% 29.90 in 5.0 mi NNW 21.9 mph 29.9 mph 0.00 in Snow Light Snow
4:55 AM 15.1 °F -3.3 °F 10.0 °F 80% 29.97 in 6.0 mi NNW 23.0 mph 32.2 mph 0.00 in Snow Light Snow
5:55 AM 14.0 °F -3.4 °F 9.0 °F 80% 29.99 in 7.0 mi NNW 19.6 mph 28.8 mph 0.00 in Snow Light Snow
6:55 AM 12.0 °F -8.1 °F 7.0 °F 80% 30.00 in 6.0 mi NW 25.3 mph 29.9 mph 0.00 in Snow Light Snow
7:55 AM 10.9 °F -9.2 °F 5.0 °F 77% 30.01 in 5.0 mi NNW 24.2 mph 28.8 mph 0.00 in Snow Light Snow
8:44 AM 8.6 °F -10.0 °F 3.2 °F 79% 29.93 in 2.5 mi NNW 18.4 mph - 0.00 in Snow Light Snow
8:50 AM 8.6 °F -10.5 °F 3.2 °F 79% 29.93 in 3.0 mi NNW 19.6 mph 26.5 mph 0.00 in Snow Light Snow
8:55 AM 9.0 °F -11.0 °F 3.9 °F 80% 30.01 in 4.0 mi NNW 21.9 mph 26.5 mph 0.00 in Snow Light Snow
9:55 AM 8.1 °F -12.2 °F 3.0 °F 80% 30.00 in 5.0 mi NNW 21.9 mph - 0.00 in   Haze
10:55 AM 8.1 °F -12.6 °F 3.0 °F 80% 30.00 in 3.0 mi NW 23.0 mph 27.6 mph 0.00 in Snow Light Snow
11:40 AM 8.6 °F -10.0 °F 1.4 °F 73% 29.91 in 4.0 mi NW 18.4 mph - 0.00 in   Haze
11:55 AM 8.1 °F -11.2 °F 3.0 °F 80% 29.99 in 5.0 mi NW 19.6 mph - 0.00 in   Haze
12:13 PM 8.6 °F -11.0 °F 1.4 °F 73% 29.91 in 5.0 mi NNW 20.7 mph - N/A   Haze
12:55 PM 7.0 °F -12.6 °F 1.0 °F 77% 29.98 in 5.0 mi NW 19.6 mph - N/A   Haze
1:55 PM 7.0 °F -12.1 °F -0.0 °F 73% 29.97 in 7.0 mi NNW 18.4 mph - N/A   Overcast
2:55 PM 7.0 °F -12.6 °F -0.0 °F 73% 29.96 in 10.0 mi NW 19.6 mph - N/A   Scattered Clouds
3:27 PM 6.8 °F -12.4 °F -0.4 °F 72% 29.89 in 9.0 mi NW 18.4 mph - N/A   Mostly Cloudy
3:36 PM 6.8 °F -11.3 °F -0.4 °F 72% 29.89 in 9.0 mi NW 16.1 mph - N/A   Scattered Clouds
3:55 PM 5.0 °F -13.6 °F -0.9 °F 76% 29.98 in 8.0 mi NW 16.1 mph - N/A   Scattered Clouds
4:55 PM 3.9 °F -14.3 °F -2.9 °F 73% 29.98 in 10.0 mi NW 15.0 mph - N/A   Clear
5:55 PM 1.9 °F -14.7 °F -5.1 °F 72% 29.99 in 10.0 mi NW 11.5 mph - N/A   Clear
6:55 PM 1.9 °F -17.5 °F -6.0 °F 69% 30.00 in 10.0 mi NW 16.1 mph - N/A   Clear
7:55 PM -0.0 °F -17.1 °F -7.1 °F 72% 30.01 in 10.0 mi NNW 11.5 mph - N/A   Clear
8:55 PM -2.0 °F -17.7 °F -9.0 °F 72% 30.03 in 10.0 mi NNW 9.2 mph - N/A   Clear
9:55 PM -4.0 °F -23.0 °F -11.0 °F 72% 30.05 in 10.0 mi NW 12.7 mph - N/A   Clear
10:55 PM -4.0 °F -23.7 °F -11.9 °F 69% 30.05 in 10.0 mi NNW 13.8 mph - N/A   Clear
11:55 PM -4.0 °F -25.2 °F -11.9 °F 69% 30.07 in 10.0 mi NNW 16.1 mph - N/A   Scattered Clouds